Location: Montichiari
(45.4167°N, 10.3833°E)
Time: 05:58:52
(UTC+00:00)

Daily predictions for brighter satellites

Satellite Brightness Start Highest point End
(mag) Time Altitude Azimuth Time Altitude Azimuth Time Altitude Azimuth
NOSS 3-1 (C) 4.2 02:58:35 67° NE 02:58:35 67° NE 03:06:53 10° SE
NOSS 3-1 (A) 4.1 03:23:25 55° N 03:25:13 71° NE 03:33:34 10° SE
SL-16 R/B 3.6 03:32:24 28° N 03:32:24 28° N 03:35:04 10° NNE
Cosmos 1603 4.3 03:33:21 42° SSE 03:34:55 55° ESE 03:40:28 10° NE
Cosmos 2233 Rocket 4.0 03:34:25 43° N 03:36:33 76° E 03:42:40 10° SSE
Meteor 2-3 Rocket 3.9 03:40:04 68° NNE 03:40:04 68° NNE 03:45:01 10° NNE
Cosmos 2369 Rocket 2.6 03:46:10 42° N 03:47:50 58° ENE 03:53:20 10° SE
CZ-4B R/B 3.2 03:44:37 10° NNE 03:50:21 86° ESE 03:53:22 29° SSW
SL-8 R/B 4.0 03:52:22 63° ESE 03:52:22 63° ESE 03:56:41 10° ENE
CZ-2C R/B 3.9 03:54:27 10° SSE 03:58:15 64° SSE 03:58:15 64° SSE
Cosmos 968 Rocket 3.4 04:03:52 68° SW 04:03:52 68° SW 04:08:46 10° S
Cosmos 1943 Rocket 2.7 04:08:09 22° NNW 04:11:47 58° ENE 04:17:21 10° SE
Abrixas rocket 3.5 04:14:21 39° E 04:14:21 39° E 04:16:32 10° E
Cosmos 1703 Rocket 4.0 04:14:45 48° SSW 04:14:45 48° SSW 04:17:57 10° S
Lacrosse 4 Rocket 3.8 04:13:41 10° SSE 04:17:14 25° ESE 04:20:44 10° NE
Cosmos 2221 Rocket 3.6 04:16:17 29° N 04:18:34 82° E 04:23:05 10° S
Lacrosse 5 rocket 2.4 04:20:09 36° NNW 04:20:09 36° NNW 04:23:57 10° NE
Cosmos 1869 Rocket 3.5 04:15:55 10° S 04:20:18 86° E 04:24:46 10° N
Okean-O 2.9 04:23:17 10° NNE 04:27:43 68° ESE 04:32:08 10° S
USA 116 4.5 04:23:57 10° S 04:29:14 59° W 04:32:31 23° NNW
ATLAS 5 CENTAUR R/B 1.8 04:26:29 22° SSW 04:29:31 79° SE 04:34:36 10° NE
USA 267 4.3 04:24:24 10° ENE 04:30:04 33° N 04:33:12 22° NW
Cosmos 405 Rocket 2.5 04:32:24 68° WNW 04:32:39 71° W 04:36:24 10° S
Cosmos 1943 3.2 04:29:16 10° SSW 04:34:58 87° ESE 04:40:41 10° NNE
Cosmos 2237 Rocket 4.3 04:37:39 11° NNW 04:37:39 11° NNW 04:38:30 10° NNW
GEOS 3 Rocket 4.4 04:31:20 10° NNE 04:36:08 34° NW 04:36:51 32° NW
Cosmos 1072 Rocket 4.5 04:31:09 10° N 04:37:35 79° W 04:43:58 10° S
Cosmos 1782 3.9 04:41:18 29° SW 04:41:18 29° SW 04:43:37 10° SSW
Intercosmos 25 3.5 04:39:51 47° W 04:40:00 48° W 04:44:32 10° S
COSMO-SKYMED 1 2.4 04:36:04 10° S 04:40:24 73° WSW 04:43:45 17° NNW
Cosmos 2034 Rocket 4.0 04:38:19 10° N 04:44:36 82° E 04:50:46 10° S
Meteor 2-6 Rocket 4.4 04:40:47 10° NNW 04:46:31 55° W 04:52:18 10° S
PSLV R/B 4.2 04:48:39 30° SSW 04:49:14 33° S 04:52:08 10° ESE
IDEFIX/ARIANE 42P 2.7 04:44:32 10° NNE 04:49:45 78° ESE 04:54:56 10° S
Cosmos 2263 4.3 04:51:11 18° NW 04:55:30 61° WSW 05:01:10 10° S
EO 1 Del DPAF 3.5 04:52:43 10° S 04:56:23 44° W 04:58:07 26° NW
Okean 1-7 3.6 04:55:27 28° NW 04:56:50 35° W 05:00:46 10° SSW
CZ-2C R/B 2.8 04:51:55 10° NNE 04:57:06 71° ESE 05:02:06 10° S
Cosmos 1825 4.4 05:02:13 12° NNW 05:02:13 12° NNW 05:02:35 10° NNW
ATLAS 2AS CENTAUR R/B 3.5 04:54:51 10° NW 05:02:43 60° NE 05:10:08 10° SE
SS 2 4.4 05:04:40 33° NW 05:05:48 75° SW 05:08:52 10° SSE
Cosmos 1464 Rocket 4.2 05:05:05 10° NNW 05:11:05 48° W 05:17:06 10° SSW
SL-16 R/B 3.9 05:14:20 14° NW 05:14:45 14° NW 05:17:37 10° N
Cosmos 1862 3.8 05:15:04 10° SW 05:18:44 36° WNW 05:22:26 10° N
Genesis I 3.4 05:16:15 10° SW 05:20:03 51° NW 05:23:56 10° NNE
Meteor 1-27 Rocket 4.1 05:17:20 10° NNW 05:22:47 43° W 05:28:08 10° SSW
Cosmos 1733 Rocket 3.0 05:20:14 10° SSW 05:24:33 68° W 05:28:55 10° N
Gbstr 26 Del rocket 3.3 05:22:10 16° NW 05:25:24 51° NNE 05:29:08 10° E
Cosmos 1908 Rocket 4.5 05:21:22 10° S 05:25:40 53° E 05:29:57 10° NNE
Cosmos 2208 Rocket 4.4 05:20:32 10° S 05:25:41 67° ESE 05:30:50 10° NNE
CZ-3B R/B 1.9 05:27:13 21° W 05:28:08 44° NNW 05:29:49 10° NE
Cosmos 1898 Rocket 4.0 05:25:56 10° NNW 05:31:12 65° ENE 05:36:28 10° SSE
Tsikada Rocket 4.0 05:24:58 10° SSW 05:31:13 69° W 05:37:25 10° N
Cosmos 2369 Rocket 3.3 05:28:01 13° WNW 05:31:23 22° W 05:35:37 10° SSW
SL-8 R/B 3.8 05:30:22 13° W 05:34:36 62° N 05:39:20 10° ENE
Cosmos 1570 Rocket 4.1 05:31:15 10° SSW 05:36:35 88° WNW 05:42:00 10° NNE
SMAP 3.6 05:33:13 10° NNE 05:37:53 65° ESE 05:42:29 10° S
MSX 3.8 05:33:05 10° N 05:38:49 67° WNW 05:44:30 10° SSW
Cosmos 1818 3.7 05:34:17 10° NW 05:39:41 63° WSW 05:45:02 10° SSE
Cosmos 1812 2.7 05:36:21 10° N 05:40:14 82° W 05:44:07 10° S
NOSS 2-1 (C) 4.3 05:37:27 10° SSW 05:41:01 49° ESE 05:44:59 10° NE
NOSS 2-1 (D) 4.3 05:37:39 10° SSW 05:41:13 50° ESE 05:45:14 10° NE
Cosmos 1484 Rocket 2.9 05:40:31 10° NNE 05:44:34 88° WNW 05:48:34 10° SSW
Abrixas rocket 3.5 05:46:55 10° W 05:49:44 28° SSW 05:52:33 10° SSE
Cosmos 371 Rocket 3.2 05:44:58 10° SSW 05:49:48 79° WNW 05:54:40 10° NNE
Ariane Rocket 3.1 05:44:49 10° NNE 05:49:55 84° ESE 05:54:58 10° SSW
Cosmos 468 Rocket 4.5 05:44:46 10° S 05:50:01 68° ESE 05:55:16 10° NNE
ERS-2 4.4 05:47:30 10° NE 05:50:48 30° E 05:54:03 10° SSE
Aureole 3 4.1 05:49:52 10° WSW 05:52:03 18° WNW 05:54:19 10° NNW
Sich 1 Rocket 3.6 05:48:58 10° S 05:53:22 86° E 05:57:47 10° N
Cosmos 1943 Rocket 3.4 05:50:43 10° NW 05:55:05 23° W 05:59:25 10° SSW
Lacrosse 4 Rocket 2.0 05:51:44 10° WSW 05:55:46 38° NW 05:59:45 10° NNE
CZ-4 R/B 1.4 05:54:32 10° NNE 05:58:29 86° ESE 06:02:30 10° SSW
Cosmos 1867 3.8 05:53:21 10° SSW 05:58:46 82° ESE 06:04:15 10° NE
Cosmos 1975 Rocket 3.4 05:55:27 10° N 05:59:57 74° E 06:04:26 10° SSE
Lacrosse 5 rocket 3.2 05:56:33 10° NW 05:59:58 20° N 06:03:22 10° NE
